Location: Sternwarte_Laufen
(47.9344°N, 12.9346°E)
Time: 05:38:35
(UTC+02:00)

Envisat - Visible Passes

Search period start: 26 April 2019 00:00
Search period end: 06 May 2019 00:00
Orbit: 764 x 766 km, 98.2° (Epoch: 25 April)

Date Brightness Start Highest point End Pass type
(mag) Time Alt. Az. Time Alt. Az. Time Alt. Az.
26 Apr 5.5 20:42:14 10° SW 20:46:14 23° W 20:50:17 10° NW visible
28 Apr 5.9 21:09:29 10° WSW 21:12:05 14° W 21:14:42 10° NW visible
01 May 5.7 20:57:24 10° SW 21:00:43 17° W 21:04:04 10° NW visible
